This is the latest recevied weather packets stored in our database for station/object KJ4EWA. If no packets are shown the sender has not sent any weather packets the latest 10 day(s).
| Time | Temp. | Humidity | Pressure | Rain* | Wind** | Luminosity | Snow |
|---|---|---|---|---|---|---|---|
| 1778084753 | 25° C | 94% | 1019.5 hPa | 0 mm | - | 91 W/m² | - |
| 1778084445 | 25.56° C | 93% | 1019.3 hPa | 0 mm | - | 138 W/m² | - |
| 1778084143 | 25.56° C | 93% | 1019.2 hPa | 0 mm | - | 126 W/m² | - |
| 1778083833 | 25° C | 93% | 1018.9 hPa | 0 mm | - | 182 W/m² | - |
| 1778083526 | 25° C | 93% | 1019.4 hPa | 0 mm | - | 82 W/m² | - |
| 1778083222 | 25.56° C | 91% | 1019.2 hPa | 0 mm | - | 114 W/m² | - |
| 1778082921 | 25.56° C | 92% | 1019.2 hPa | 0 mm | - | 174 W/m² | - |
| 1778081812 | 25.56° C | 94% | 1019.1 hPa | 0 mm | - | 185 W/m² | - |
| 1778081510 | 25° C | 94% | 1019.1 hPa | 0 mm | - | 190 W/m² | - |
| 1778081206 | 25° C | 94% | 1019.1 hPa | 0 mm | - | 196 W/m² | - |
| 1778080904 | 25° C | 95% | 1019 hPa | 0 mm | - | 171 W/m² | - |
| 1778080603 | 25° C | 97% | 1019 hPa | 0 mm | - | 275 W/m² | - |
| 1778080299 | 24.44° C | 97% | 1019.1 hPa | 0 mm | - | 111 W/m² | - |
| 1778079996 | 24.44° C | 96% | 1018.9 hPa | 0 mm | - | 120 W/m² | - |
| 1778079693 | 24.44° C | 96% | 1018.7 hPa | 0 mm | - | 108 W/m² | - |
| 1778079390 | 24.44° C | 96% | 1018.9 hPa | 0 mm | - | 60 W/m² | - |
| 1778079086 | 24.44° C | 96% | 1018.7 hPa | 0 mm | - | 55 W/m² | - |
| 1778078784 | 24.44° C | 95% | 1018.8 hPa | 0 mm | - | 73 W/m² | - |
| 1778078480 | 24.44° C | 96% | 1018.8 hPa | 0 mm | - | 73 W/m² | - |
| 1778078178 | 24.44° C | 96% | 1018.7 hPa | 0 mm | - | 106 W/m² | - |
| 1778077876 | 24.44° C | 96% | 1018.8 hPa | 0 mm | - | 66 W/m² | - |
| 1778077574 | 24.44° C | 96% | 1018.7 hPa | 0 mm | - | 100 W/m² | - |
| 1778077272 | 24.44° C | 96% | 1018.8 hPa | 0 mm | - | 94 W/m² | - |
| 1778076969 | 24.44° C | 96% | 1018.5 hPa | 0 mm | - | 79 W/m² | - |
| 1778076668 | 24.44° C | 96% | 1018.7 hPa | 0 mm | - | 79 W/m² | - |
* Rain latest hour (hover to see other rain measurements)
** Current wind speed in m/s (hover to see current wind gust speed)